Home > Weather > Porto Velho > Past weeks

Flag for Brazil Past Weather in Porto Velho, Rondônia, Brazil — Yesterday and Last 2 Weeks

Now
72 °F

Clear.


Feels Like: 72 °F
Forecast: 71 / 99 °F
Wind: No wind

Location: Porto Velho Aeroporto

Current Time: Jul 31, 2016 at 1:30:22 AM

Latest Report: Jul 31, 2016 at 1:00 AM


Visibility: 10 mi

Pressure: 29.86 "Hg

Humidity: 78%

Dew Point: 64 °F

Location of Porto VelhoLocation

Past Weather in Porto Velho — Graph

°F

Porto Velho Temperature Yesterday

Maximum temperature yesterday: 97 °F (at 4:00 PM)
Minimum temperature yesterday: 68 °F (at 2:00 AM)
Average temperature yesterday: 80 °F

High & Low Weather Summary for the Past Weeks

 TemperatureHumidityPressure
High97 °F (Jul 24, 2:00 PM)100% (Jul 20, 7:00 PM)30.01 "Hg (Jul 20, 7:00 PM)
Low66 °F (Jul 20, 7:00 PM)16% (Jul 29, 12:00 PM)29.80 "Hg (Jul 22, 5:00 PM)
Average81 °F61%29.89 "Hg
* Reported Jul 16 12:00 AM — Jul 31 12:00 AM, Porto Velho, Weather by CustomWeather, © 2016

Note: Actual official high and low records may vary slightly from our data, if they occured in-between our weather recording intervals... More about our weather records

Advertising

Porto Velho Weather History for the Previous 24 Hours

Scroll right to see more
 ConditionsComfort  
Time TempWeatherWind HumidityBarometerVisibility
12:00 AM
Sun, Jul 31
73 °FClear.2 mph74%29.86 "Hg10 mi
11:00 PM
Sat, Jul 30
73 °FClear.No wind74%29.86 "Hg10 mi
10:00 PM75 °FClear.1 mph69%29.86 "Hg10 mi
9:00 PM77 °FClear.No wind61%29.86 "Hg10 mi
8:00 PM77 °FClear.No wind61%29.83 "Hg10 mi
7:00 PM82 °FClear.No wind55%29.80 "Hg10 mi
6:00 PM88 °FSunny.2 mph38%29.80 "Hg10 mi
5:00 PM95 °FSunny.6 mph25%29.80 "Hg10 mi
4:00 PM97 °FSunny.10 mph20%29.80 "Hg10 mi
3:00 PM95 °FPassing clouds.9 mph25%29.80 "HgN/A
2:00 PM95 °FSunny.10 mph26%29.83 "Hg10 mi
1:00 PM95 °FSunny.10 mph25%29.89 "Hg10 mi
12:00 PM93 °FSunny.5 mph30%29.89 "Hg10 mi
11:00 AM90 °FSunny.6 mph36%29.92 "Hg10 mi
10:00 AM86 °FSunny.No wind49%29.92 "Hg10 mi
9:00 AM81 °FSunny.No wind58%29.92 "Hg10 mi
8:00 AM75 °FSunny.3 mph61%29.89 "Hg10 mi
7:00 AM70 °FClear.1 mph83%29.89 "Hg6 mi
6:00 AM68 °FClear.No wind88%29.86 "Hg4 mi
5:00 AM70 °FClear.1 mph83%29.86 "Hg6 mi
4:00 AM68 °FClear.No wind78%29.83 "Hg10 mi
3:00 AM72 °FClear.No wind69%29.83 "Hg10 mi
2:00 AM68 °FClear.No wind78%29.86 "Hg10 mi
1:00 AM72 °FClear.2 mph69%29.86 "Hg10 mi
Weather by CustomWeather, © 2016

See weather overviewHow to use our weather pages